Cloud_Cover
0 0 0 0 0 2 94 47 91 79 7 90 100 71 1 90 63 100 100 4 5 10 89 93 88 92 83 53 99 100 100 98 77 100 100 100 94 91 8 5 5 5 5 8 5 4 0 2 0
0 0 0 0 0 82 100 4 98 82 5 66 8 77 100 7 0 4 2 21 5 17 12 70 98 91 89 84 30 56 45 89 100 65 31 77 49 22 66 19 5 5 0 0 1 1 2 9 0
0 0 0 0 34 95 100 0 6 5 5 5 8 18 11 84 98 100 100 38 15 56 76 100 80 70 63 5 5 5 9 5 20 18 25 7 6 2 4 1 0 0 0 0 0 0 0 0 0
0 0 0 5 99 100 100 4 5 44 16 41 48 29 83 100 99 33 5 6 8 84 100 40 5 6 11 78 16 5 5 15 5 5 10 5 4 0 0 0 0 0 0 0 0 0 0 0 0
0 0 0 53 59 0 0 5 34 97 8 5 6 61 5 5 16 8 5 14 96 100 99 8 5 53 20 74 5 10 60 72 5 5 5 2 4 10 3 3 0 0 0 0 0 0 0 0 0
0 0 7 100 7 0 0 4 5 41 0 1 4 5 5 36 5 5 82 100 100 100 21 53 98 89 12 5 5 5 5 5 5 5 5 5 5 0 1 5 3 1 0 0 0 0 0 0 0
0 0 74 100 5 2 0 0 0 5 5 66 5 86 5 23 43 93 100 100 100 100 100 100 38 2 19 0 0 0 3 2 0 0 1 5 1 0 0 0 0 2 4 0 3 0 0 0 0
0 0 8 4 5 16 2 0 0 4 95 5 4 98 100 100 100 100 100 94 100 100 100 100 40 9 11 1 7 0 0 0 0 0 0 0 2 0 0 0 17 100 100 81 3 0 0 0 0
0 0 4 2 2 5 7 5 0 15 2 26 5 6 52 92 100 97 30 99 100 57 46 62 72 98 100 94 19 14 6 0 9 2 2 66 2 2 6 14 100 74 4 2 0 0 0 0 1
0 0 85 2 0 1 5 3 80 0 88 68 100 7 1 0 1 10 99 64 4 0 0 4 39 86 73 91 71 48 60 23 26 35 13 69 100 81 99 98 30 4 0 0 0 0 0 0 0
0 0 2 0 0 0 4 5 5 68 1 0 100 40 3 0 3 4 33 6 0 5 65 50 52 99 100 100 77 64 84 80 12 54 89 100 100 100 97 57 2 1 4 5 3 0 0 0 0
0 0 0 0 0 0 2 0 89 100 5 2 100 100 11 8 6 20 53 57 73 77 5 1 80 100 100 100 96 61 46 71 99 100 100 93 100 92 100 87 100 88 100 60 78 100 32 29 5
4 5 3 0 0 0 0 0 3 89 53 87 90 100 100 4 42 14 37 62 5 5 5 6 9 100 100 100 86 80 100 81 100 100 93 7 95 100 100 97 98 100 100 93 100 100 100 97 72
0 0 3 4 0 0 0 0 0 72 100 87 100 87 98 100 100 100 40 74 18 5 5 5 21 72 100 100 100 97 86 100 100 100 96 100 100 99 99 73 76 100 100 82 70 96 60 100 100
0 0 0 1 0 4 0 3 5 1 53 59 8 84 100 100 100 100 100 51 16 5 5 99 100 39 100 100 100 89 72 62 100 96 100 93 62 55 10 100 99 50 99 34 50 11 47 25 100
0 0 0 1 0 0 16 28 1 1 96 36 99 88 100 100 100 100 75 6 5 41 100 97 84 100 100 100 100 99 100 100 100 95 100 100 99 96 57 44 44 86 82 80 65 97 52 32 100
0 0 1 3 0 0 1 1 5 3 30 61 26 78 100 100 14 50 5 5 5 16 12 78 86 66 100 100 100 100 100 100 100 100 100 100 100 100 100 100 100 85 79 95 99 100 96 100 100
41 25 1 8 20 0 0 0 4 0 0 0 4 11 13 90 86 26 5 5 6 21 54 83 69 100 100 100 100 100 100 100 100 100 100 100 100 95 84 63 20 15 17 71 40 100 100 100 100
0 0 0 12 5 0 0 0 2 33 0 0 0 5 31 100 6 4 5 5 6 83 100 100 100 83 97 100 100 100 100 97 100 100 100 100 100 45 95 100 100 100 99 99 60 98 100 100 100
0 0 0 0 0 1 2 0 0 8 0 0 0 0 5 0 0 2 3 5 47 19 100 100 100 71 100 100 100 100 79 100 100 100 100 100 100 93 48 23 51 100 100 98 55 100 89 100 100
0 0 0 2 3 0 1 4 5 3 0 0 0 0 4 5 11 2 0 1 2 100 98 100 98 98 100 91 100 99 100 100 100 68 100 94 78 21 92 96 100 100 100 100 100 100 100 100 100
0 0 3 5 5 6 4 5 32 22 5 2 0 0 0 1 4 3 24 0 83 100 100 41 56 46 34 74 96 100 100 86 71 100 100 74 80 27 100 100 100 100 100 100 100 100 100 100 100
0 0 5 8 15 82 15 5 5 10 4 0 0 5 5 5 5 5 5 78 87 4 5 82 5 5 22 98 100 100 90 96 100 100 76 100 100 97 98 8 100 100 100 100 100 100 100 100 100
0 1 0 4 5 99 7 16 90 25 100 18 2 0 1 3 3 2 2 1 4 4 5 5 13 67 76 90 100 100 93 100 100 100 88 100 100 54 92 98 100 100 100 100 100 100 100 100 99
5 5 5 69 80 68 44 11 100 48 0 0 6 5 78 5 4 1 2 5 10 5 23 100 100 87 68 74 100 100 90 100 99 68 93 91 23 100 100 100 100 100 100 100 100 100 100 100 100
5 5 5 14 99 100 100 61 100 52 54 5 4 1 10 5 3 78 100 100 98 9 92 98 100 100 100 99 100 100 100 100 100 100 100 91 100 100 88 100 100 100 100 100 100 100 100 100 100
66 58 42 12 48 8 100 100 100 68 100 73 64 10 84 100 100 100 100 97 85 100 100 100 100 100 100 100 100 100 100 100 100 100 100 100 100 24 98 100 100 100 100 100 100 100 100 100 100
100 47 100 100 35 13 83 36 100 100 100 100 100 100 100 100 100 100 100 100 100 100 100 100 99 100 96 100 97 100 100 100 100 100 100 74 84 100 100 100 100 100 100 100 100 100 100 100 100
99 100 95 100 100 97 100 100 52 100 100 100 100 100 100 100 100 97 74 100 98 100 100 100 100 100 100 100 100 100 98 100 100 100 100 100 100 100 100 100 100 100 100 100 100 100 100 100 100
100 100 73 40 81 100 100 100 100 100 100 100 100 100 90 72 23 26 82 100 100 100 99 98 100 98 100 99 100 93 100 100 100 100 100 100 100 100 100 100 100 100 100 100 100 100 100 100 100